,,,PA_Meas_PMT16A,,PR_Meas_QMR101_102,,RH_Meas_QMH101,,SR_Meas_QMS101,,TA_Meas_QMH101,,GenWind,,GenWind,
date,time,status,PA,status,PR,status,RH,status,SR,status,TA,status,DirAvg,status,SpdAvg,
2009-12-06, 00:00:04,VALID,1000.91,VALID,0,VALID,90.3118,VALID,0,VALID,23.9354,VALID,16,VALID,0,
2009-12-06, 00:01:04,VALID,1000.9,VALID,0,VALID,90.5712,VALID,0,VALID,23.9354,VALID,16,VALID,0.315625,
2009-12-06, 00:02:04,VALID,1000.92,VALID,0,VALID,90.4186,VALID,0,VALID,23.8963,VALID,16,VALID,0.00195313,
2009-12-06, 00:03:04,VALID,1000.9,VALID,0,VALID,90.3423,VALID,0,VALID,23.8963,VALID,16,VALID,0,
2009-12-06, 00:04:04,VALID,1000.94,VALID,0,VALID,90.3423,VALID,0,VALID,23.8768,VALID,16,VALID,0.166406,
2009-12-06, 00:05:04,VALID,1000.93,VALID,0,VALID,90.5102,VALID,0,VALID,23.9159,VALID,316,VALID,0.283984,
2009-12-06, 00:06:04,VALID,1000.9,VALID,0,VALID,90.3347,VALID,0,VALID,23.8963,VALID,316,VALID,0.159766,
2009-12-06, 00:07:04,VALID,1000.9,VALID,0,VALID,90.3118,VALID,0,VALID,23.8963,VALID,316,VALID,0,
2009-12-06, 00:08:04,VALID,1000.89,VALID,0,VALID,90.2279,VALID,0,VALID,23.8963,VALID,82,VALID,0.612109,
2009-12-06, 00:09:04,VALID,1000.91,VALID,0,VALID,89.938,VALID,0,VALID,23.8963,VALID,87,VALID,0.560938,
2009-12-06, 00:10:04,VALID,1000.9,VALID,0,VALID,89.6786,VALID,0,VALID,23.9159,VALID,106,VALID,0.5875,
2009-12-06, 00:11:04,VALID,1000.89,VALID,0,VALID,89.5489,VALID,0,VALID,23.9159,VALID,106,VALID,0.546875,
2009-12-06, 00:12:04,VALID,1000.91,VALID,0,VALID,89.3276,VALID,0,VALID,23.9372,VALID,112,VALID,0.23125,
2009-12-06, 00:13:04,VALID,1000.93,VALID,0,VALID,89.2208,VALID,0,VALID,23.9354,VALID,112,VALID,0.553906,
2009-12-06, 00:14:04,VALID,1000.87,VALID,0,VALID,89.2284,VALID,0,VALID,23.9336,VALID,112,VALID,0.841797,
2009-12-06, 00:15:04,VALID,1000.88,VALID,0,VALID,89.2742,VALID,0,VALID,23.9549,VALID,113,VALID,0.761328,
2009-12-06, 00:16:04,VALID,1000.9,VALID,0,VALID,89.2589,VALID,0,VALID,23.9549,VALID,113,VALID,0.0652344,
2009-12-06, 00:17:04,VALID,1000.89,VALID,0,VALID,89.2208,VALID,0,VALID,23.9744,VALID,134,VALID,0.444922,
2009-12-06, 00:18:04,VALID,1000.89,VALID,0,VALID,89.1979,VALID,0,VALID,23.9744,VALID,135,VALID,0,
2009-12-06, 00:19:04,VALID,1000.88,VALID,0,VALID,89.1674,VALID,0,VALID,23.9744,VALID,135,VALID,0.109375,
2009-12-06, 00:20:04,VALID,1000.86,VALID,0,VALID,89.2742,VALID,0,VALID,23.9744,VALID,135,VALID,0.562891,
2009-12-06, 00:21:04,VALID,1000.85,VALID,0,VALID,89.32,VALID,0,VALID,23.9939,VALID,130,VALID,0.767578,
2009-12-06, 00:22:04,VALID,1000.88,VALID,0,VALID,89.381,VALID,0,VALID,23.9939,VALID,130,VALID,0.620313,
2009-12-06, 00:23:04,VALID,1000.84,VALID,0,VALID,89.4115,VALID,0,VALID,23.9939,VALID,130,VALID,0.239453,
2009-12-06, 00:24:04,VALID,1000.89,VALID,0,VALID,89.4268,VALID,0,VALID,23.9939,VALID,130,VALID,0,
2009-12-06, 00:25:04,VALID,1000.87,VALID,0,VALID,89.4268,VALID,0,VALID,23.9744,VALID,130,VALID,0.0921875,
2009-12-06, 00:26:04,VALID,1000.88,VALID,0,VALID,89.4497,VALID,0,VALID,23.9744,VALID,130,VALID,0,
2009-12-06, 00:27:04,VALID,1000.87,VALID,0,VALID,89.4726,VALID,0,VALID,23.9957,VALID,130,VALID,0.321484,
2009-12-06, 00:28:04,VALID,1000.82,VALID,0,VALID,89.442,VALID,0,VALID,23.9744,VALID,138,VALID,0.733203,
2009-12-06, 00:29:04,VALID,1000.83,VALID,0,VALID,89.4573,VALID,0,VALID,23.9549,VALID,137,VALID,0.588281,
2009-12-06, 00:30:04,VALID,1000.82,VALID,0,VALID,89.5107,VALID,0,VALID,23.9744,VALID,137,VALID,0.540234,
2009-12-06, 00:31:04,VALID,1000.8,VALID,0,VALID,89.5641,VALID,0,VALID,23.9549,VALID,137,VALID,0.458594,
2009-12-06, 00:32:04,VALID,1000.8,VALID,0,VALID,89.6328,VALID,0,VALID,23.9354,VALID,123,VALID,0.549219,
2009-12-06, 00:33:04,VALID,1000.79,VALID,0,VALID,89.7396,VALID,0,VALID,23.9372,VALID,122,VALID,0.571094,
2009-12-06, 00:34:04,VALID,1000.78,VALID,0,VALID,89.7625,VALID,0,VALID,23.9354,VALID,98,VALID,0.614453,
2009-12-06, 00:35:04,VALID,1000.76,VALID,0,VALID,89.8769,VALID,0,VALID,23.9159,VALID,87,VALID,0.552734,
2009-12-06, 00:36:04,VALID,1000.74,VALID,0,VALID,89.8006,VALID,0,VALID,23.9159,VALID,88,VALID,0.808203,
2009-12-06, 00:37:04,VALID,1000.78,VALID,0,VALID,89.9609,VALID,0,VALID,23.8963,VALID,90,VALID,0.723437,
2009-12-06, 00:38:04,VALID,1000.79,VALID,0,VALID,90.2737,VALID,0,VALID,23.9354,VALID,81,VALID,0.729688,
2009-12-06, 00:39:04,VALID,1000.81,VALID,0,VALID,90.3423,VALID,0,VALID,23.9354,VALID,66,VALID,0.729297,
2009-12-06, 00:40:04,VALID,1000.8,VALID,0,VALID,90.4186,VALID,0,VALID,23.9159,VALID,65,VALID,0.717969,
2009-12-06, 00:41:04,VALID,1000.81,VALID,0,VALID,90.5254,VALID,0,VALID,23.8963,VALID,65,VALID,0.464453,
2009-12-06, 00:42:04,VALID,1000.84,VALID,0,VALID,90.6094,VALID,0,VALID,23.8963,VALID,65,VALID,0.404297,
2009-12-06, 00:43:04,VALID,1000.84,VALID,0,VALID,90.6246,VALID,0,VALID,23.8768,VALID,65,VALID,0.301562,
2009-12-06, 00:44:04,VALID,1000.87,VALID,0,VALID,90.6399,VALID,0,VALID,23.8768,VALID,65,VALID,0.186719,
2009-12-06, 00:45:04,VALID,1000.86,VALID,0,VALID,90.7391,VALID,0,VALID,23.8768,VALID,65,VALID,0,
2009-12-06, 00:46:04,VALID,1000.86,VALID,0,VALID,90.7925,VALID,0,VALID,23.8963,VALID,65,VALID,0,
2009-12-06, 00:47:04,VALID,1000.86,VALID,0,VALID,90.7925,VALID,0,VALID,23.8768,VALID,65,VALID,0,
2009-12-06, 00:48:04,VALID,1000.84,VALID,0,VALID,90.7772,VALID,0,VALID,23.875,VALID,65,VALID,0,
2009-12-06, 00:49:04,VALID,1000.87,VALID,0,VALID,90.884,VALID,0,VALID,23.8768,VALID,65,VALID,0.362891,
2009-12-06, 00:50:04,VALID,1000.87,VALID,0,VALID,90.2813,VALID,0,VALID,23.8573,VALID,79,VALID,0.396484,
2009-12-06, 00:51:04,VALID,1000.84,VALID,0,VALID,90.2889,VALID,0,VALID,23.8573,VALID,79,VALID,0.3625,
2009-12-06, 00:52:04,VALID,1000.86,VALID,0,VALID,90.0829,VALID,0,VALID,23.8768,VALID,92,VALID,0.444922,
2009-12-06, 00:53:04,VALID,1000.85,VALID,0,VALID,89.938,VALID,0,VALID,23.8555,VALID,91,VALID,0.475781,
2009-12-06, 00:54:04,VALID,1000.87,VALID,0,VALID,89.9151,VALID,0,VALID,23.8963,VALID,91,VALID,0.357422,
2009-12-06, 00:55:04,VALID,1000.84,VALID,0,VALID,89.938,VALID,0,VALID,23.8945,VALID,91,VALID,0.257813,
2009-12-06, 00:56:04,VALID,1000.85,VALID,0,VALID,90.06,VALID,0,VALID,23.9159,VALID,91,VALID,0.184375,
2009-12-06, 00:57:04,VALID,1000.84,VALID,0,VALID,90.0982,VALID,0,VALID,23.9354,VALID,91,VALID,0.247266,
2009-12-06, 00:58:04,VALID,1000.83,VALID,0,VALID,90.1974,VALID,0,VALID,23.9354,VALID,91,VALID,0.345313,
2009-12-06, 00:59:04,VALID,1000.83,VALID,0,VALID,90.144,VALID,0,VALID,23.8945,VALID,81,VALID,0.612109,
2009-12-06, 01:00:04,VALID,1000.8,VALID,0,VALID,90.0982,VALID,0,VALID,23.9159,VALID,70,VALID,0.566797,
2009-12-06, 01:01:04,VALID,1000.82,VALID,0,VALID,90.0982,VALID,0,VALID,23.9354,VALID,69,VALID,0.21875,
2009-12-06, 01:02:04,VALID,1000.78,VALID,0,VALID,90.1058,VALID,0.112286,VALID,23.9354,VALID,69,VALID,0.2625,
2009-12-06, 01:03:04,VALID,1000.8,VALID,0,VALID,90.1211,VALID,0,VALID,23.9159,VALID,69,VALID,0.293359,
2009-12-06, 01:04:04,VALID,1000.78,VALID,0,VALID,90.1974,VALID,0,VALID,23.9159,VALID,69,VALID,0.308594,
2009-12-06, 01:05:04,VALID,1000.72,VALID,0,VALID,90.2889,VALID,0,VALID,23.8963,VALID,69,VALID,0.366797,
2009-12-06, 01:06:04,VALID,1000.75,VALID,0,VALID,90.1821,VALID,0,VALID,23.8768,VALID,69,VALID,0.351563,
2009-12-06, 01:07:04,VALID,1000.72,VALID,0,VALID,90.2279,VALID,0,VALID,23.8768,VALID,69,VALID,0,
2009-12-06, 01:08:04,VALID,1000.71,VALID,0,VALID,90.35,VALID,0,VALID,23.8768,VALID,69,VALID,0,
2009-12-06, 01:09:04,VALID,1000.69,VALID,0,VALID,90.3271,VALID,0,VALID,23.8768,VALID,69,VALID,0,
2009-12-06, 01:10:04,VALID,1000.66,VALID,0,VALID,90.1897,VALID,0,VALID,23.8768,VALID,72,VALID,0.788672,
2009-12-06, 01:11:04,VALID,1000.66,VALID,0,VALID,90.1592,VALID,0,VALID,23.836,VALID,72,VALID,0.762891,
2009-12-06, 01:12:04,VALID,1000.68,VALID,0,VALID,90.205,VALID,0,VALID,23.8768,VALID,45,VALID,0.767578,
2009-12-06, 01:13:04,VALID,1000.67,VALID,0,VALID,90.3652,VALID,0,VALID,23.8768,VALID,4,VALID,0.694531,
2009-12-06, 01:14:04,VALID,1000.67,VALID,0,VALID,90.6094,VALID,0,VALID,23.8963,VALID,358,VALID,0.571875,
2009-12-06, 01:15:04,VALID,1000.66,VALID,0,VALID,90.8383,VALID,0,VALID,23.8945,VALID,355,VALID,0.596094,
2009-12-06, 01:16:04,VALID,1000.65,VALID,0,VALID,90.8535,VALID,0,VALID,23.8963,VALID,9,VALID,0.5625,
2009-12-06, 01:17:04,VALID,1000.7,VALID,0,VALID,90.7543,VALID,0,VALID,23.8573,VALID,42,VALID,0.908594,
2009-12-06, 01:18:04,VALID,1000.66,VALID,0,VALID,90.8611,VALID,0,VALID,23.8573,VALID,44,VALID,1.04258,
2009-12-06, 01:19:04,VALID,1000.66,VALID,0,VALID,90.968,VALID,0,VALID,23.8786,VALID,45,VALID,1.08789,
2009-12-06, 01:20:04,VALID,1000.67,VALID,0,VALID,91.0519,VALID,0,VALID,23.8165,VALID,40,VALID,1.14492,
2009-12-06, 01:21:04,VALID,1000.69,VALID,0,VALID,91.235,VALID,0,VALID,23.8183,VALID,27,VALID,1.07617,
2009-12-06, 01:22:04,VALID,1000.68,VALID,0,VALID,91.2731,VALID,0,VALID,23.8183,VALID,13,VALID,1.22187,
2009-12-06, 01:23:04,VALID,1000.69,VALID,0,VALID,91.2579,VALID,0,VALID,23.7793,VALID,32,VALID,1.28203,
2009-12-06, 01:24:04,VALID,1000.68,VALID,0,VALID,91.3723,VALID,0,VALID,23.7793,VALID,26,VALID,1.04531,
2009-12-06, 01:25:04,VALID,1000.67,VALID,0,VALID,91.2197,VALID,0,VALID,23.7189,VALID,28,VALID,1.12031,
2009-12-06, 01:26:04,VALID,1000.69,VALID,0,VALID,91.1968,VALID,0,VALID,23.7207,VALID,22,VALID,0.738281,
2009-12-06, 01:27:04,VALID,1000.67,VALID,0,VALID,91.2426,VALID,0,VALID,23.6994,VALID,29,VALID,0.333984,
2009-12-06, 01:28:04,VALID,1000.71,VALID,0,VALID,90.9985,VALID,0,VALID,23.7207,VALID,52,VALID,1.01484,
2009-12-06, 01:29:04,VALID,1000.72,VALID,0,VALID,90.8154,VALID,0,VALID,23.7012,VALID,51,VALID,0.899609,
2009-12-06, 01:30:04,VALID,1000.69,VALID,0,VALID,90.5865,VALID,0,VALID,23.6994,VALID,66,VALID,1.2207,
2009-12-06, 01:31:04,VALID,1000.69,VALID,0,VALID,90.6704,VALID,0,VALID,23.7597,VALID,64,VALID,1.06758,
2009-12-06, 01:32:04,VALID,1000.67,VALID,0,VALID,90.5254,VALID,0,VALID,23.7597,VALID,54,VALID,1.03281,
2009-12-06, 01:33:04,VALID,1000.67,VALID,0,VALID,90.5788,VALID,0,VALID,23.7597,VALID,35,VALID,0.728516,
2009-12-06, 01:34:04,VALID,1000.66,VALID,0,VALID,90.617,VALID,0,VALID,23.7597,VALID,38,VALID,0.544141,
2009-12-06, 01:35:04,VALID,1000.64,VALID,0,VALID,90.6551,VALID,0,VALID,23.7793,VALID,38,VALID,0.293359,
2009-12-06, 01:36:04,VALID,1000.56,VALID,0,VALID,90.6857,VALID,0,VALID,23.7793,VALID,38,VALID,0.249219,
2009-12-06, 01:37:04,VALID,1000.55,VALID,0,VALID,90.762,VALID,0,VALID,23.7597,VALID,54,VALID,0.534766,
2009-12-06, 01:38:04,VALID,1000.5,VALID,0,VALID,90.8077,VALID,0,VALID,23.7597,VALID,61,VALID,0.0386719,
2009-12-06, 01:39:04,VALID,1000.48,VALID,0,VALID,90.6399,VALID,0,VALID,23.7597,VALID,73,VALID,0,
2009-12-06, 01:40:04,VALID,1000.47,VALID,0,VALID,90.617,VALID,0,VALID,23.7793,VALID,85,VALID,0,
2009-12-06, 01:41:04,VALID,1000.42,VALID,0,VALID,90.6246,VALID,0,VALID,23.7793,VALID,85,VALID,0,
2009-12-06, 01:42:04,VALID,1000.4,VALID,0,VALID,90.7543,VALID,0,VALID,23.7775,VALID,92,VALID,0,
2009-12-06, 01:43:04,VALID,1000.4,VALID,0,VALID,90.8764,VALID,0,VALID,23.8183,VALID,111,VALID,0.610937,
2009-12-06, 01:44:04,VALID,1000.38,VALID,0,VALID,90.8077,VALID,0,VALID,23.797,VALID,109,VALID,0.621875,
2009-12-06, 01:45:04,VALID,1000.37,VALID,0,VALID,90.823,VALID,0,VALID,23.8165,VALID,108,VALID,0.580469,
2009-12-06, 01:46:04,VALID,1000.36,VALID,0,VALID,90.6628,VALID,0,VALID,23.797,VALID,107,VALID,0,
2009-12-06, 01:47:04,VALID,1000.35,VALID,0,VALID,90.6246,VALID,0,VALID,23.8183,VALID,107,VALID,0,
2009-12-06, 01:48:04,VALID,1000.33,VALID,0,VALID,90.6628,VALID,0,VALID,23.7988,VALID,107,VALID,0,
2009-12-06, 01:49:04,VALID,1000.31,VALID,0,VALID,90.6475,VALID,0,VALID,23.8183,VALID,107,VALID,0,
2009-12-06, 01:50:04,VALID,1000.31,VALID,0,VALID,90.6246,VALID,0,VALID,23.7988,VALID,107,VALID,0,
2009-12-06, 01:51:04,VALID,1000.3,VALID,0,VALID,90.678,VALID,0,VALID,23.7988,VALID,107,VALID,0,
2009-12-06, 01:52:04,VALID,1000.28,VALID,0,VALID,90.7467,VALID,0,VALID,23.7988,VALID,107,VALID,0,
2009-12-06, 01:53:04,VALID,1000.23,VALID,0,VALID,90.8383,VALID,0.112286,VALID,23.7775,VALID,107,VALID,0,
2009-12-06, 01:54:04,VALID,1000.24,VALID,0,VALID,90.8688,VALID,0,VALID,23.7793,VALID,107,VALID,0,
2009-12-06, 01:55:04,VALID,1000.2,VALID,0,VALID,90.9756,VALID,0,VALID,23.7793,VALID,105,VALID,0,
2009-12-06, 01:56:04,VALID,1000.23,VALID,0,VALID,91.0214,VALID,0,VALID,23.7793,VALID,105,VALID,0,
2009-12-06, 01:57:04,VALID,1000.19,VALID,0,VALID,91.0671,VALID,0,VALID,23.7793,VALID,105,VALID,0,
2009-12-06, 01:58:04,VALID,1000.17,VALID,0,VALID,91.0595,VALID,0,VALID,23.7793,VALID,105,VALID,0,
2009-12-06, 01:59:04,VALID,1000.12,VALID,0,VALID,91.1053,VALID,0,VALID,23.7597,VALID,57,VALID,0,
2009-12-06, 02:00:04,VALID,1000.15,VALID,0,VALID,91.0595,VALID,0,VALID,23.7384,VALID,87,VALID,0,
2009-12-06, 02:01:04,VALID,1000.13,VALID,0,VALID,91.0748,VALID,0,VALID,23.7793,VALID,100,VALID,0,
2009-12-06, 02:02:04,VALID,1000.11,VALID,0,VALID,91.1282,VALID,0,VALID,23.7775,VALID,101,VALID,0,
2009-12-06, 02:03:04,VALID,1000.08,VALID,0,VALID,91.1587,VALID,0,VALID,23.797,VALID,101,VALID,0.211719,
2009-12-06, 02:04:04,VALID,1000.1,VALID,0,VALID,91.1358,VALID,0,VALID,23.8378,VALID,102,VALID,1.37148,
2009-12-06, 02:05:04,VALID,1000.1,VALID,0,VALID,91.1663,VALID,0,VALID,23.8378,VALID,98,VALID,0.980078,
2009-12-06, 02:06:04,VALID,1000.08,VALID,0,VALID,91.0824,VALID,0,VALID,23.8165,VALID,105,VALID,1.12773,
2009-12-06, 02:07:04,VALID,1000.09,VALID,0,VALID,91.1282,VALID,0,VALID,23.836,VALID,109,VALID,0.661719,
2009-12-06, 02:08:04,VALID,1000.07,VALID,0,VALID,91.1282,VALID,0,VALID,23.836,VALID,109,VALID,0.285547,
2009-12-06, 02:09:04,VALID,1000.09,VALID,0,VALID,91.09,VALID,0,VALID,23.8573,VALID,101,VALID,0.354297,
2009-12-06, 02:10:04,VALID,1000.06,VALID,0,VALID,91.1434,VALID,0,VALID,23.8165,VALID,101,VALID,0,
2009-12-06, 02:11:04,VALID,1000.04,VALID,0,VALID,91.1663,VALID,0,VALID,23.8378,VALID,101,VALID,0,
2009-12-06, 02:12:04,VALID,1000.05,VALID,0,VALID,91.1282,VALID,0,VALID,23.8183,VALID,101,VALID,0,
2009-12-06, 02:13:04,VALID,1000.03,VALID,0,VALID,91.1663,VALID,0,VALID,23.797,VALID,101,VALID,0.105859,
2009-12-06, 02:14:04,VALID,1000.05,VALID,0,VALID,91.2197,VALID,0,VALID,23.8183,VALID,94,VALID,0,
2009-12-06, 02:15:04,VALID,1000.02,VALID,0,VALID,91.1816,VALID,0,VALID,23.7988,VALID,48,VALID,0,
2009-12-06, 02:16:04,VALID,1000.03,VALID,0,VALID,91.0824,VALID,0,VALID,23.7793,VALID,28,VALID,0.335547,
2009-12-06, 02:17:04,VALID,1000,VALID,0,VALID,91.0366,VALID,0,VALID,23.7793,VALID,27,VALID,0,
2009-12-06, 02:18:04,VALID,1000.03,VALID,0,VALID,90.9909,VALID,0,VALID,23.7793,VALID,39,VALID,0,
2009-12-06, 02:19:04,VALID,1000.01,VALID,0,VALID,90.9222,VALID,0,VALID,23.7579,VALID,76,VALID,0,
2009-12-06, 02:20:04,VALID,1000.01,VALID,0,VALID,90.8383,VALID,0,VALID,23.7775,VALID,78,VALID,0,
2009-12-06, 02:21:04,VALID,1000.01,VALID,0,VALID,90.7391,VALID,0,VALID,23.7793,VALID,110,VALID,0,
2009-12-06, 02:22:04,VALID,1000.02,VALID,0,VALID,90.7543,VALID,0,VALID,23.7775,VALID,105,VALID,0,
2009-12-06, 02:23:04,VALID,1000.05,VALID,0,VALID,90.5788,VALID,0,VALID,23.7793,VALID,101,VALID,0,
2009-12-06, 02:24:04,VALID,1000.06,VALID,0,VALID,90.6017,VALID,0,VALID,23.7988,VALID,88,VALID,0,
2009-12-06, 02:25:04,VALID,1000.06,VALID,0,VALID,90.6323,VALID,0,VALID,23.7793,VALID,93,VALID,0,
2009-12-06, 02:26:04,VALID,1000.05,VALID,0,VALID,90.5788,VALID,0,VALID,23.7579,VALID,93,VALID,0,
2009-12-06, 02:27:04,VALID,1000.03,VALID,0,VALID,90.556,VALID,0,VALID,23.7579,VALID,93,VALID,0,
2009-12-06, 02:28:04,VALID,1000.06,VALID,0,VALID,90.4568,VALID,0,VALID,23.7384,VALID,93,VALID,0,
2009-12-06, 02:29:04,VALID,1000.06,VALID,0,VALID,90.3423,VALID,0,VALID,23.7189,VALID,93,VALID,0,
2009-12-06, 02:30:04,VALID,1000.07,VALID,0,VALID,90.2355,VALID,0,VALID,23.7189,VALID,93,VALID,0,
2009-12-06, 02:31:04,VALID,1000.08,VALID,0,VALID,90.205,VALID,0,VALID,23.7402,VALID,93,VALID,0,
2009-12-06, 02:32:04,VALID,1000.05,VALID,0,VALID,90.2584,VALID,0,VALID,23.7207,VALID,93,VALID,0,
2009-12-06, 02:33:04,VALID,1000.07,VALID,0,VALID,90.144,VALID,0,VALID,23.7207,VALID,93,VALID,0,
2009-12-06, 02:34:04,VALID,1000.09,VALID,0,VALID,90.0829,VALID,0,VALID,23.7189,VALID,93,VALID,0,
2009-12-06, 02:35:04,VALID,1000.04,VALID,0,VALID,89.8998,VALID,0,VALID,23.7384,VALID,93,VALID,0,
2009-12-06, 02:36:04,VALID,1000.04,VALID,0,VALID,89.8311,VALID,0,VALID,23.7597,VALID,93,VALID,0,
2009-12-06, 02:37:04,VALID,1000.04,VALID,0,VALID,89.6328,VALID,0,VALID,23.7579,VALID,90,VALID,0,
2009-12-06, 02:38:04,VALID,1000.04,VALID,0,VALID,89.5412,VALID,0,VALID,23.7579,VALID,92,VALID,0,
2009-12-06, 02:39:04,VALID,1000.04,VALID,0,VALID,89.3734,VALID,0,VALID,23.7793,VALID,109,VALID,0,
2009-12-06, 02:40:04,VALID,1000.01,VALID,0,VALID,89.2666,VALID,0,VALID,23.8183,VALID,116,VALID,0,
2009-12-06, 02:41:04,VALID,1000.02,VALID,0,VALID,89.1674,VALID,0,VALID,23.8378,VALID,136,VALID,0,
2009-12-06, 02:42:04,VALID,1000,VALID,0,VALID,88.7706,VALID,0,VALID,23.8378,VALID,144,VALID,0.891016,
2009-12-06, 02:43:04,VALID,1000,VALID,0,VALID,88.7859,VALID,0,VALID,23.8768,VALID,144,VALID,0.369531,
2009-12-06, 02:44:04,VALID,1000.07,VALID,0,VALID,88.8164,VALID,0,VALID,23.8963,VALID,144,VALID,0.24375,
2009-12-06, 02:45:04,VALID,1000.04,VALID,0,VALID,88.6943,VALID,0,VALID,23.8982,VALID,144,VALID,0,
2009-12-06, 02:46:04,VALID,1000.07,VALID,0,VALID,88.6333,VALID,0,VALID,23.8768,VALID,144,VALID,0,
2009-12-06, 02:47:04,VALID,1000.05,VALID,0,VALID,88.5112,VALID,0,VALID,23.8573,VALID,155,VALID,0.459375,
2009-12-06, 02:48:04,VALID,1000.05,VALID,0,VALID,88.5646,VALID,0,VALID,23.8963,VALID,155,VALID,0.394531,
2009-12-06, 02:49:04,VALID,1000.05,VALID,0,VALID,88.5036,VALID,0,VALID,23.8963,VALID,155,VALID,0.311719,
2009-12-06, 02:50:04,VALID,1000.05,VALID,0,VALID,88.5112,VALID,0,VALID,23.8963,VALID,150,VALID,0.502734,
2009-12-06, 02:51:04,VALID,1000.05,VALID,0,VALID,88.6714,VALID,0,VALID,23.8963,VALID,112,VALID,0.704687,
2009-12-06, 02:52:04,VALID,1000.07,VALID,0,VALID,88.7783,VALID,0,VALID,23.8963,VALID,112,VALID,0.609766,
2009-12-06, 02:53:04,VALID,1000.09,VALID,0,VALID,88.6867,VALID,0,VALID,23.8768,VALID,112,VALID,0.528516,
2009-12-06, 02:54:04,VALID,1000.08,VALID,0,VALID,88.7096,VALID,0,VALID,23.8555,VALID,113,VALID,0.245703,
2009-12-06, 02:55:04,VALID,1000.08,VALID,0,VALID,88.7706,VALID,0,VALID,23.8573,VALID,132,VALID,0.615625,
2009-12-06, 02:56:04,VALID,1000.1,VALID,0,VALID,88.7783,VALID,0,VALID,23.8573,VALID,133,VALID,0.222656,
2009-12-06, 02:57:04,VALID,1000.09,VALID,0,VALID,88.7325,VALID,0,VALID,23.8573,VALID,133,VALID,0.275391,
2009-12-06, 02:58:04,VALID,1000.09,VALID,0,VALID,88.7249,VALID,0,VALID,23.8573,VALID,133,VALID,0.379687,
2009-12-06, 02:59:04,VALID,1000.11,VALID,0,VALID,88.5494,VALID,0,VALID,23.8573,VALID,132,VALID,0.344922,
2009-12-06, 03:00:04,VALID,1000.11,VALID,0,VALID,88.557,VALID,0,VALID,23.8768,VALID,132,VALID,0,
2009-12-06, 03:01:04,VALID,1000.11,VALID,0,VALID,88.3663,VALID,0,VALID,23.8963,VALID,123,VALID,0,
2009-12-06, 03:02:04,VALID,1000.11,VALID,0,VALID,88.4273,VALID,0,VALID,23.9159,VALID,108,VALID,0,
2009-12-06, 03:03:04,VALID,1000.1,VALID,0,VALID,88.2213,VALID,0,VALID,23.9354,VALID,86,VALID,0.400391,
2009-12-06, 03:04:04,VALID,1000.11,VALID,0,VALID,88.1832,VALID,0,VALID,23.914,VALID,106,VALID,0.675,
2009-12-06, 03:05:04,VALID,1000.09,VALID,0,VALID,88.1755,VALID,0,VALID,23.9744,VALID,117,VALID,0.800391,
2009-12-06, 03:06:04,VALID,1000.09,VALID,0,VALID,88.0229,VALID,0,VALID,23.9549,VALID,119,VALID,0.676172,
2009-12-06, 03:07:04,VALID,1000.11,VALID,0,VALID,88.1908,VALID,0,VALID,23.9531,VALID,133,VALID,0.600391,
2009-12-06, 03:08:04,VALID,1000.11,VALID,0,VALID,88.3815,VALID,0,VALID,23.9744,VALID,131,VALID,0.351563,
2009-12-06, 03:09:04,VALID,1000.11,VALID,0,VALID,88.4883,VALID,0,VALID,23.9744,VALID,131,VALID,0.0351563,
2009-12-06, 03:10:04,VALID,1000.1,VALID,0,VALID,88.5341,VALID,0,VALID,23.9549,VALID,131,VALID,0,
2009-12-06, 03:11:04,VALID,1000.11,VALID,0,VALID,88.5723,VALID,0,VALID,23.9354,VALID,131,VALID,0,
2009-12-06, 03:12:04,VALID,1000.13,VALID,0,VALID,88.7783,VALID,0,VALID,23.914,VALID,131,VALID,0,
2009-12-06, 03:13:04,VALID,1000.13,VALID,0,VALID,89.0682,VALID,0,VALID,23.9354,VALID,131,VALID,0,
2009-12-06, 03:14:04,VALID,1000.16,VALID,0,VALID,89.0148,VALID,0,VALID,23.9159,VALID,131,VALID,0,
2009-12-06, 03:15:04,VALID,1000.19,VALID,0,VALID,89.0987,VALID,0,VALID,23.9159,VALID,130,VALID,0,
2009-12-06, 03:16:04,VALID,1000.2,VALID,0,VALID,89.2208,VALID,0,VALID,23.8963,VALID,130,VALID,0,
2009-12-06, 03:17:04,VALID,1000.21,VALID,0,VALID,89.2742,VALID,0,VALID,23.8768,VALID,130,VALID,0,
2009-12-06, 03:18:04,VALID,1000.21,VALID,0,VALID,89.2513,VALID,0,VALID,23.8768,VALID,130,VALID,0,
2009-12-06, 03:19:04,VALID,1000.23,VALID,0,VALID,89.2818,VALID,0,VALID,23.8768,VALID,130,VALID,0,
2009-12-06, 03:20:04,VALID,1000.22,VALID,0,VALID,89.1292,VALID,0,VALID,23.8963,VALID,130,VALID,0,
2009-12-06, 03:21:04,VALID,1000.25,VALID,0,VALID,89.0987,VALID,0,VALID,23.8963,VALID,130,VALID,0,
2009-12-06, 03:22:04,VALID,1000.25,VALID,0,VALID,89.1368,VALID,0,VALID,23.8963,VALID,130,VALID,0,
2009-12-06, 03:23:04,VALID,1000.26,VALID,0,VALID,89.2513,VALID,0,VALID,23.9159,VALID,130,VALID,0,
2009-12-06, 03:24:04,VALID,1000.25,VALID,0,VALID,89.2284,VALID,0,VALID,23.8963,VALID,130,VALID,0,
2009-12-06, 03:25:04,VALID,1000.27,VALID,0,VALID,88.763,VALID,0,VALID,23.8963,VALID,130,VALID,0,
2009-12-06, 03:26:04,VALID,1000.24,VALID,0,VALID,88.8774,VALID,0,VALID,23.8963,VALID,130,VALID,0,
2009-12-06, 03:27:04,VALID,1000.28,VALID,0,VALID,88.9461,VALID,0,VALID,23.875,VALID,130,VALID,0,
2009-12-06, 03:28:04,VALID,1000.26,VALID,0,VALID,89.5565,VALID,0,VALID,23.9159,VALID,85,VALID,0.654688,
2009-12-06, 03:29:04,VALID,1000.27,VALID,0,VALID,89.7777,VALID,0,VALID,23.9159,VALID,78,VALID,0.545313,
2009-12-06, 03:30:04,VALID,1000.3,VALID,0,VALID,89.8617,VALID,0,VALID,23.8963,VALID,78,VALID,0.107422,
2009-12-06, 03:31:04,VALID,1000.28,VALID,0,VALID,90.0677,VALID,0,VALID,23.8768,VALID,78,VALID,0.20625,
2009-12-06, 03:32:04,VALID,1000.3,VALID,0,VALID,90.205,VALID,0,VALID,23.8768,VALID,78,VALID,0,
2009-12-06, 03:33:04,VALID,1000.27,VALID,0,VALID,90.2508,VALID,0,VALID,23.8768,VALID,78,VALID,0,
2009-12-06, 03:34:04,VALID,1000.29,VALID,0,VALID,90.2889,VALID,0,VALID,23.8573,VALID,78,VALID,0,
2009-12-06, 03:35:04,VALID,1000.29,VALID,0,VALID,90.3423,VALID,0,VALID,23.836,VALID,78,VALID,0,
2009-12-06, 03:36:04,VALID,1000.31,VALID,0,VALID,90.411,VALID,0,VALID,23.8573,VALID,78,VALID,0,
2009-12-06, 03:37:04,VALID,1000.31,VALID,0,VALID,90.5102,VALID,0,VALID,23.8378,VALID,78,VALID,0,
2009-12-06, 03:38:04,VALID,1000.3,VALID,0,VALID,90.5407,VALID,0,VALID,23.8378,VALID,78,VALID,0.361328,
2009-12-06, 03:39:04,VALID,1000.32,VALID,0,VALID,90.5026,VALID,0,VALID,23.8378,VALID,78,VALID,0.232812,
2009-12-06, 03:40:04,VALID,1000.29,VALID,0,VALID,90.4415,VALID,0,VALID,23.8378,VALID,78,VALID,0,
2009-12-06, 03:41:04,VALID,1000.28,VALID,0,VALID,90.3881,VALID,0,VALID,23.8378,VALID,78,VALID,0,
2009-12-06, 03:42:04,VALID,1000.27,VALID,0,VALID,90.2431,VALID,0,VALID,23.8165,VALID,78,VALID,0.00507812,
2009-12-06, 03:43:04,VALID,1000.27,VALID,0,VALID,90.1363,VALID,0,VALID,23.8165,VALID,104,VALID,0.666797,
2009-12-06, 03:44:04,VALID,1000.25,VALID,0,VALID,89.9227,VALID,0,VALID,23.8573,VALID,119,VALID,0.693359,
2009-12-06, 03:45:04,VALID,1000.28,VALID,0,VALID,89.9456,VALID,0,VALID,23.836,VALID,119,VALID,0.49375,
2009-12-06, 03:46:04,VALID,1000.26,VALID,0,VALID,89.8693,VALID,0,VALID,23.8573,VALID,119,VALID,0.368359,
2009-12-06, 03:47:04,VALID,1000.27,VALID,0,VALID,89.9227,VALID,0,VALID,23.8573,VALID,134,VALID,0.366016,
2009-12-06, 03:48:04,VALID,1000.27,VALID,0,VALID,89.9914,VALID,0,VALID,23.8573,VALID,134,VALID,0.689844,
2009-12-06, 03:49:04,VALID,1000.28,VALID,0,VALID,90.0143,VALID,0,VALID,23.8573,VALID,133,VALID,0.525781,
2009-12-06, 03:50:04,VALID,1000.27,VALID,0,VALID,89.9303,VALID,0,VALID,23.8378,VALID,117,VALID,0.576172,
2009-12-06, 03:51:04,VALID,1000.26,VALID,0,VALID,89.9151,VALID,0,VALID,23.8378,VALID,117,VALID,0.454297,